Home   Weather   Graz   Past weeks

Flag for Austria Past Weather in Graz, Styria, Austria — Yesterday and Last 2 Weeks

Now
12 °F

Light freezing rain. Overcast.


Feels Like: 12 °F
Forecast: 11 / 25 °F
Wind: 1 mph from North

Location: Graz-Thalerhof-Flughafen

Current Time: Jan 22, 2017 at 5:07:09 am

Latest Report: Jan 22, 2017 at 4:20 am


Visibility: 4 mi

Pressure: 30.48 "Hg

Humidity: 85%

Dew Point: 9 °F

Location of GrazLocation

Past Weather in Graz — Graph

°F

Graz Temperature Yesterday

Maximum temperature yesterday: 32 °F (at 2:20 pm)
Minimum temperature yesterday: 9 °F (at 5:20 am)
Average temperature yesterday: 18 °F

High & Low Weather Summary for the Past Weeks

 TemperatureHumidityPressure
High39 °F (Jan 9, 1:20 pm)100% (Jan 13, 11:20 am)30.60 "Hg (Jan 13, 11:20 am)
Low1 °F (Jan 11, 3:50 am)28% (Jan 7, 12:50 pm)29.47 "Hg (Jan 13, 4:50 am)
Average21 °F81%30.17 "Hg
* Reported Jan 7 3:20 am — Jan 22 3:50 am, Graz, Weather by CustomWeather, © 2017

Note: Actual official high and low records may vary slightly from our data, if they occured in-between our weather recording intervals... More about our weather records

Advertising

Graz Weather History for the Previous 24 Hours

Scroll right to see more
 ConditionsComfort  
Time TempWeatherWind HumidityBarometerVisibility
3:50 am
Sun, Jan 22
10 °FCold.1 mph92%30.48 "Hg4 mi
3:20 am10 °FLight freezing rain. Overcast.1 mph85%30.48 "Hg4 mi
2:50 am10 °FLight freezing rain. Overcast.2 mph92%30.48 "Hg3 mi
2:20 am12 °FLight freezing rain. Overcast.1 mph92%30.48 "Hg4 mi
1:50 am12 °FLight freezing rain. Overcast.1 mph92%30.48 "Hg4 mi
1:20 am14 °FLight freezing rain. Overcast.1 mph92%30.48 "Hg3 mi
12:50 am14 °FLight freezing rain. Overcast.1 mph92%30.48 "Hg4 mi
12:20 am12 °FLight freezing rain. Overcast.1 mph92%30.51 "Hg3 mi
11:50 pm
Sat, Jan 21
14 °FLight freezing rain. Overcast.1 mph85%30.51 "Hg3 mi
11:20 pm16 °FClear.2 mph86%30.51 "Hg4 mi
10:50 pm18 °FClear.1 mph86%30.51 "Hg4 mi
10:20 pm16 °FClear.1 mph93%30.51 "Hg10 mi
9:50 pm18 °FClear.2 mph86%30.51 "Hg10 mi
9:20 pm18 °FClear.1 mph86%30.51 "Hg10 mi
8:50 pm18 °FClear.1 mph93%30.48 "Hg10 mi
8:20 pm19 °FClear.1 mph86%30.48 "Hg10 mi
7:50 pm19 °FClear.1 mph86%30.48 "Hg10 mi
7:20 pm21 °FClear.2 mph80%30.48 "Hg10 mi
6:50 pm23 °FClear.2 mph80%30.48 "Hg10 mi
6:20 pm23 °FClear.2 mph80%30.48 "Hg10 mi
5:50 pm21 °FClear.2 mph80%30.45 "Hg10 mi
5:20 pm25 °FClear.3 mph74%30.45 "Hg10 mi
4:50 pm28 °FClear.2 mph64%30.45 "Hg10 mi
4:20 pm30 °FSunny.2 mph59%30.45 "Hg10 mi
3:50 pm30 °FSunny.3 mph64%30.45 "Hg10 mi
3:20 pm32 °FSunny.3 mph55%30.45 "Hg10 mi
2:50 pm32 °FSunny.2 mph55%30.45 "Hg10 mi
2:20 pm32 °FPassing clouds.3 mph55%30.45 "HgN/A
1:50 pm30 °FSunny.3 mph59%30.45 "Hg10 mi
1:20 pm30 °FPassing clouds.3 mph59%30.45 "HgN/A
12:50 pm30 °FPassing clouds.3 mph59%30.48 "HgN/A
12:20 pm27 °FSunny.3 mph64%30.48 "Hg10 mi
11:50 am25 °FPassing clouds.3 mph74%30.48 "HgN/A
11:20 am25 °FSunny.2 mph69%30.48 "Hg10 mi
10:50 am23 °FSunny.2 mph74%30.51 "Hg10 mi
10:20 am21 °FSunny.2 mph86%30.51 "Hg10 mi
9:50 am18 °FPassing clouds.3 mph86%30.51 "HgN/A
9:20 am18 °FSunny.1 mph86%30.51 "Hg10 mi
8:50 am14 °FSunny.1 mph85%30.51 "Hg10 mi
8:20 am12 °FSunny.2 mph85%30.51 "Hg4 mi
7:50 am9 °FLight freezing rain. Sunny.1 mph92%30.48 "Hg3 mi
7:20 am9 °FLight freezing rain. Clear.1 mph92%30.48 "Hg3 mi
6:50 am9 °FClear.2 mph92%30.48 "Hg4 mi
6:20 am9 °FPassing clouds.1 mph92%30.48 "Hg4 mi
5:50 am9 °FPassing clouds.2 mph85%30.48 "Hg4 mi
5:20 am9 °FPassing clouds.1 mph92%30.48 "Hg4 mi
Weather by CustomWeather, © 2017

See weather overviewHow to use our weather pages